• In Hungary
  • List of Countries
  • For 7 days
  • Water Temperature
  • Satellite Maps
  • Weather Map
  • News
  • Weather Widgets
  • user-avatar
    Login

    Hourly Weather Malinovskiy

    Today, 25 May, Friday

    Time Temperature Precipitation Wind Pressure Humidity
    00:00 +12°C° 0 mm 3 mps 753 mmHg 72%
    01:00 +11°C° 0 mm 4 mps 754 mmHg 69%
    02:00 +10°C° 0 mm 4 mps 754 mmHg 65%
    03:00 +9°C° 0 mm 3 mps 754 mmHg 67%
    04:00 +9°C° 0 mm 3 mps 754 mmHg 64%
    05:00 +8°C° 0 mm 4 mps 754 mmHg 61%
    06:00 +9°C° 0 mm 5 mps 754 mmHg 57%
    07:00 +10°C° 0 mm 5 mps 754 mmHg 52%
    08:00 +10°C° 0 mm 5 mps 755 mmHg 48%
    09:00 +11°C° 0 mm 6 mps 755 mmHg 43%
    10:00 +13°C° 0 mm 6 mps 755 mmHg 41%
    11:00 +13°C° 0 mm 6 mps 756 mmHg 39%
    12:00 +13°C° 0 mm 6 mps 756 mmHg 37%
    13:00 +13°C° 0 mm 6 mps 756 mmHg 37%
    14:00 +13°C° 0 mm 6 mps 756 mmHg 38%
    15:00 +13°C° 0 mm 6 mps 757 mmHg 39%
    16:00 +12°C° 0 mm 5 mps 757 mmHg 40%
    17:00 +12°C° 0 mm 5 mps 757 mmHg 42%
    18:00 +10°C° 0 mm 5 mps 757 mmHg 43%
    19:00 +10°C° 0 mm 4 mps 758 mmHg 47%
    20:00 +8°C° 0 mm 4 mps 758 mmHg 50%
    21:00 +7°C° 0 mm 3 mps 759 mmHg 53%
    22:00 +5°C° 0 mm 3 mps 759 mmHg 53%
    23:00 +5°C° 0 mm 3 mps 760 mmHg 53%

    Tomorrow, 26 May, Saturday

    Time Temperature Precipitation Wind Pressure Humidity
    00:00 +4°C° 0 mm 3 mps 760 mmHg 53%
    01:00 +3°C° 0 mm 3 mps 761 mmHg 55%
    02:00 +3°C° 0 mm 3 mps 761 mmHg 57%
    03:00 +2°C° 0 mm 3 mps 762 mmHg 59%
    04:00 +3°C° 0 mm 3 mps 762 mmHg 55%
    05:00 +4°C° 0 mm 4 mps 762 mmHg 52%
    06:00 +5°C° 0 mm 4 mps 763 mmHg 49%
    07:00 +6°C° 0 mm 4 mps 763 mmHg 45%
    08:00 +7°C° 0 mm 5 mps 763 mmHg 42%
    09:00 +9°C° 0 mm 5 mps 764 mmHg 39%
    10:00 +10°C° 0 mm 5 mps 764 mmHg 37%
    11:00 +12°C° 0 mm 4 mps 763 mmHg 36%
    12:00 +13°C° 0 mm 4 mps 763 mmHg 35%
    13:00 +14°C° 0 mm 4 mps 763 mmHg 34%
    14:00 +14°C° 0 mm 3 mps 763 mmHg 34%
    15:00 +16°C° 0 mm 3 mps 763 mmHg 34%
    16:00 +16°C° 0 mm 3 mps 762 mmHg 36%
    17:00 +16°C° 0 mm 2 mps 762 mmHg 39%
    18:00 +16°C° 0 mm 2 mps 761 mmHg 42%
    19:00 +14°C° 0 mm 2 mps 761 mmHg 46%
    20:00 +12°C° 0 mm 2 mps 761 mmHg 50%
    21:00 +9°C° 0 mm 2 mps 761 mmHg 54%
    22:00 +9°C° 0 mm 2 mps 761 mmHg 56%
    23:00 +8°C° 0 mm 3 mps 761 mmHg 58%

    Day after tomorrow, 27 May, Sunday

    Time Temperature Precipitation Wind Pressure Humidity
    00:00 +8°C° 0 mm 3 mps 760 mmHg 60%
    01:00 +8°C° 0 mm 3 mps 760 mmHg 61%
    02:00 +7°C° 0 mm 4 mps 760 mmHg 62%
    03:00 +7°C° 0 mm 4 mps 759 mmHg 63%
    04:00 +9°C° 0 mm 5 mps 759 mmHg 63%
    05:00 +10°C° 0 mm 5 mps 758 mmHg 62%
    06:00 +11°C° 0 mm 6 mps 758 mmHg 62%
    07:00 +14°C° 0 mm 6 mps 757 mmHg 59%
    08:00 +16°C° 0 mm 6 mps 756 mmHg 56%
    09:00 +19°C° 0 mm 6 mps 756 mmHg 53%
    10:00 +20°C° 0 mm 7 mps 755 mmHg 49%
    11:00 +21°C° 0 mm 7 mps 755 mmHg 46%
    12:00 +23°C° 0 mm 8 mps 754 mmHg 42%
    13:00 +22°C° 0.2 mm 7 mps 753 mmHg 46%
    14:00 +21°C° 0.2 mm 6 mps 753 mmHg 50%
    15:00 +21°C° 0.2 mm 6 mps 752 mmHg 54%
    16:00 +17°C° 2.2 mm 5 mps 752 mmHg 67%
    17:00 +15°C° 2.2 mm 4 mps 751 mmHg 80%
    18:00 +13°C° 2.2 mm 4 mps 751 mmHg 93%
    19:00 +12°C° 1 mm 3 mps 751 mmHg 92%
    20:00 +11°C° 1 mm 3 mps 751 mmHg 91%
    21:00 +11°C° 1 mm 3 mps 752 mmHg 91%
    22:00 +10°C° 0 mm 3 mps 752 mmHg 90%
    23:00 +9°C° 0 mm 3 mps 752 mmHg 90%

    28 May, Monday

    Time Temperature Precipitation Wind Pressure Humidity
    00:00 +8°C° 0 mm 3 mps 753 mmHg 90%
    01:00 +7°C° 0 mm 3 mps 753 mmHg 89%
    02:00 +6°C° 0 mm 4 mps 754 mmHg 88%
    03:00 +5°C° 0 mm 4 mps 754 mmHg 87%
    04:00 +5°C° 0 mm 4 mps 755 mmHg 83%
    05:00 +6°C° 0 mm 4 mps 755 mmHg 78%
    06:00 +6°C° 0 mm 5 mps 755 mmHg 74%
    07:00 +7°C° 0 mm 5 mps 755 mmHg 65%
    08:00 +8°C° 0 mm 6 mps 756 mmHg 57%
    09:00 +9°C° 0 mm 6 mps 756 mmHg 48%
    10:00 +9°C° 0 mm 6 mps 756 mmHg 48%
    11:00 +9°C° 0 mm 7 mps 756 mmHg 48%
    12:00 +9°C° 0 mm 7 mps 756 mmHg 47%
    13:00 +10°C° 0 mm 7 mps 756 mmHg 47%
    14:00 +10°C° 0 mm 7 mps 756 mmHg 46%
    15:00 +10°C° 0 mm 7 mps 756 mmHg 45%
    16:00 +10°C° 0 mm 6 mps 756 mmHg 46%
    17:00 +10°C° 0 mm 5 mps 756 mmHg 48%
    18:00 +11°C° 0 mm 4 mps 756 mmHg 50%
    19:00 +10°C° 0 mm 4 mps 756 mmHg 53%
    20:00 +9°C° 0 mm 3 mps 756 mmHg 56%
    21:00 +8°C° 0 mm 2 mps 756 mmHg 59%
    22:00 +8°C° 0 mm 2 mps 756 mmHg 61%
    23:00 +7°C° 0 mm 2 mps 756 mmHg 62%

    29 May, Tuesday

    Time Temperature Precipitation Wind Pressure Humidity
    00:00 +7°C° 0 mm 3 mps 756 mmHg 64%
    01:00 +5°C° 0 mm 3 mps 755 mmHg 66%
    02:00 +5°C° 0 mm 3 mps 755 mmHg 69%
    03:00 +5°C° 0 mm 3 mps 755 mmHg 71%
    04:00 +7°C° 0.2 mm 2 mps 755 mmHg 76%
    05:00 +7°C° 0.2 mm 2 mps 754 mmHg 80%
    06:00 +8°C° 0.2 mm 2 mps 754 mmHg 85%
    07:00 +9°C° 0 mm 3 mps 754 mmHg 77%
    08:00 +11°C° 0 mm 4 mps 753 mmHg 69%
    09:00 +13°C° 0 mm 5 mps 753 mmHg 61%
    10:00 +14°C° 0.1 mm 6 mps 753 mmHg 57%
    11:00 +15°C° 0.1 mm 6 mps 753 mmHg 52%
    12:00 +15°C° 0.1 mm 7 mps 753 mmHg 48%
    13:00 +16°C° 0 mm 6 mps 752 mmHg 46%
    14:00 +16°C° 0 mm 6 mps 752 mmHg 45%
    15:00 +16°C° 0 mm 6 mps 752 mmHg 44%
    16:00 +16°C° 0 mm 5 mps 752 mmHg 47%
    17:00 +17°C° 0 mm 4 mps 752 mmHg 51%
    18:00 +16°C° 0 mm 3 mps 752 mmHg 55%
    19:00 +15°C° 0 mm 2 mps 752 mmHg 59%
    20:00 +13°C° 0 mm 2 mps 752 mmHg 63%
    21:00 +12°C° 0 mm 2 mps 752 mmHg 67%
    22:00 +10°C° 0 mm 2 mps 752 mmHg 69%
    23:00 +10°C° 0 mm 2 mps 752 mmHg 70%

    30 May, Wednesday

    Time Temperature Precipitation Wind Pressure Humidity
    00:00 +10°C° 0 mm 1 mps 751 mmHg 71%
    01:00 +10°C° 0 mm 1 mps 751 mmHg 73%
    02:00 +10°C° 0 mm 1 mps 751 mmHg 74%
    03:00 +10°C° 0 mm 1 mps 751 mmHg 75%
    04:00 +11°C° 0 mm 1 mps 750 mmHg 74%
    05:00 +12°C° 0 mm 2 mps 750 mmHg 73%
    06:00 +13°C° 0 mm 2 mps 749 mmHg 72%
    07:00 +15°C° 0 mm 2 mps 749 mmHg 69%
    08:00 +16°C° 0 mm 3 mps 748 mmHg 67%
    09:00 +18°C° 0 mm 4 mps 747 mmHg 64%
    10:00 +19°C° 0.1 mm 5 mps 746 mmHg 62%
    11:00 +20°C° 0.1 mm 5 mps 745 mmHg 59%
    12:00 +22°C° 0.1 mm 6 mps 744 mmHg 57%
    13:00 +22°C° 0.2 mm 6 mps 743 mmHg 53%
    14:00 +23°C° 0.2 mm 6 mps 742 mmHg 49%
    15:00 +24°C° 0.2 mm 6 mps 741 mmHg 46%
    16:00 +23°C° 0.2 mm 7 mps 740 mmHg 50%
    17:00 +22°C° 0.2 mm 7 mps 739 mmHg 54%
    18:00 +21°C° 0.2 mm 7 mps 738 mmHg 58%
    19:00 +17°C° 2.6 mm 7 mps 738 mmHg 69%
    20:00 +15°C° 2.6 mm 7 mps 738 mmHg 79%
    21:00 +11°C° 2.6 mm 7 mps 738 mmHg 90%
    22:00 +9°C° 0.1 mm 6 mps 738 mmHg 88%
    23:00 +7°C° 0.1 mm 6 mps 739 mmHg 86%
    Show more